N39YL KLAX-KSAN

Flight info

Callsign N39YL
Flight time 0h 39m
Altitude 11000
Route SLI8 SLI V23 MZB
Aircraft BE9L/L-VGDW/C

Departure

Time 2026-05-07 23:58
Airport Los Angeles International Airport (KLAX)

Arrival

Time 2026-05-08 00:37
Airport San Diego International Airport (KSAN)
Time Latitude Longitude Altitude Speed Heading
2026-05-07 23:40 33.93375 -118.39423 128 ft 0 kts 89°
2026-05-07 23:49 33.93377 -118.39414 128 ft 5 kts 69°
2026-05-07 23:49 33.93449 -118.39395 128 ft 16 kts 11°
2026-05-07 23:50 33.93516 -118.39278 128 ft 23 kts 84°
2026-05-07 23:50 33.93534 -118.39053 128 ft 29 kts 83°
2026-05-07 23:50 33.93561 -118.38786 128 ft 33 kts 81°
2026-05-07 23:50 33.93589 -118.38503 128 ft 35 kts 81°
2026-05-07 23:51 33.93606 -118.38354 128 ft 2 kts 84°
2026-05-07 23:51 33.93628 -118.38287 128 ft 14 kts 32°
2026-05-07 23:51 33.93650 -118.38281 128 ft 0 kts 360°
2026-05-07 23:54 33.93653 -118.38281 128 ft 3 kts
2026-05-07 23:54 33.93719 -118.38290 128 ft 14 kts 323°
2026-05-07 23:55 33.93728 -118.38357 128 ft 0 kts 263°
2026-05-07 23:57 33.93707 -118.38573 128 ft 69 kts 263°
2026-05-07 23:57 33.93628 -118.39375 219 ft 111 kts 263°
2026-05-07 23:57 33.93520 -118.40349 488 ft 131 kts 261°
2026-05-07 23:58 33.93301 -118.41510 825 ft 143 kts 252°
2026-05-07 23:58 33.92920 -118.42479 1541 ft 130 kts 251°
2026-05-07 23:58 33.92992 -118.43579 1951 ft 140 kts 279°
2026-05-07 23:58 33.92781 -118.44701 2316 ft 145 kts 234°
2026-05-07 23:59 33.91871 -118.45315 2502 ft 166 kts 191°
2026-05-07 23:59 33.90725 -118.44902 2690 ft 186 kts 146°
2026-05-07 23:59 33.90081 -118.43537 2929 ft 199 kts 102°
2026-05-07 23:59 33.89937 -118.42051 3155 ft 199 kts 109°
2026-05-08 00:00 33.89541 -118.40442 3409 ft 199 kts 114°
2026-05-08 00:00 33.89073 -118.38868 3660 ft 200 kts 115°
2026-05-08 00:00 33.88588 -118.37316 3909 ft 200 kts 116°
2026-05-08 00:00 33.88089 -118.35754 4162 ft 199 kts 116°
2026-05-08 00:01 33.87588 -118.34185 4416 ft 198 kts 116°
2026-05-08 00:01 33.87093 -118.32649 4667 ft 196 kts 117°
2026-05-08 00:01 33.86293 -118.31426 4913 ft 187 kts 142°
2026-05-08 00:01 33.85327 -118.30365 5167 ft 186 kts 143°
2026-05-08 00:02 33.84366 -118.29343 5418 ft 184 kts 143°
2026-05-08 00:02 33.83396 -118.28329 5673 ft 182 kts 143°
2026-05-08 00:02 33.82442 -118.27340 5924 ft 181 kts 143°
2026-05-08 00:02 33.81495 -118.26364 6176 ft 179 kts 143°
2026-05-08 00:03 33.80551 -118.25394 6427 ft 178 kts 143°
2026-05-08 00:03 33.79619 -118.24439 6676 ft 177 kts 143°
2026-05-08 00:03 33.78681 -118.23479 6929 ft 177 kts 143°
2026-05-08 00:03 33.77751 -118.22529 7180 ft 176 kts 143°
2026-05-08 00:04 33.76815 -118.21574 7433 ft 175 kts 143°
2026-05-08 00:04 33.75891 -118.20630 7685 ft 174 kts 143°
2026-05-08 00:04 33.74968 -118.19690 7938 ft 173 kts 143°
2026-05-08 00:04 33.74062 -118.18767 8188 ft 172 kts 143°
2026-05-08 00:05 33.73153 -118.17841 8440 ft 171 kts 142°
2026-05-08 00:05 33.72250 -118.16921 8692 ft 169 kts 142°
2026-05-08 00:05 33.71354 -118.16009 8924 ft 169 kts 142°
2026-05-08 00:05 33.70435 -118.15073 8979 ft 178 kts 141°
2026-05-08 00:06 33.69466 -118.14088 8987 ft 185 kts 141°
2026-05-08 00:06 33.68458 -118.13062 8989 ft 191 kts 141°
2026-05-08 00:06 33.67434 -118.12021 8989 ft 194 kts 141°
2026-05-08 00:06 33.66407 -118.10976 8990 ft 196 kts 141°
2026-05-08 00:07 33.65356 -118.09908 8991 ft 198 kts 141°
2026-05-08 00:07 33.64307 -118.08843 8992 ft 199 kts 141°
2026-05-08 00:07 33.63245 -118.07764 8994 ft 199 kts 140°
2026-05-08 00:07 33.62191 -118.06694 8996 ft 199 kts 140°
2026-05-08 00:08 33.61129 -118.05615 8997 ft 199 kts 140°
2026-05-08 00:08 33.60077 -118.04547 8999 ft 200 kts 140°
2026-05-08 00:08 33.59008 -118.03463 9000 ft 200 kts 140°
2026-05-08 00:08 33.57945 -118.02385 9000 ft 200 kts 140°
2026-05-08 00:09 33.56895 -118.01320 9000 ft 200 kts 140°
2026-05-08 00:09 33.55822 -118.00232 9000 ft 200 kts 140°
2026-05-08 00:09 33.54762 -117.99159 9000 ft 200 kts 140°
2026-05-08 00:09 33.53698 -117.98082 9000 ft 200 kts 140°
2026-05-08 00:10 33.52645 -117.97015 9000 ft 200 kts 140°
2026-05-08 00:10 33.51586 -117.95943 9000 ft 200 kts 140°
2026-05-08 00:10 33.50517 -117.94862 8999 ft 200 kts 140°
2026-05-08 00:10 33.49462 -117.93795 8999 ft 200 kts 140°
2026-05-08 00:11 33.48399 -117.92721 8999 ft 200 kts 140°
2026-05-08 00:11 33.47333 -117.91644 8999 ft 200 kts 140°
2026-05-08 00:11 33.46276 -117.90575 8999 ft 200 kts 140°
2026-05-08 00:11 33.45211 -117.89499 8999 ft 200 kts 140°
2026-05-08 00:12 33.44157 -117.88435 8999 ft 200 kts 140°
2026-05-08 00:12 33.43094 -117.87362 8999 ft 199 kts 140°
2026-05-08 00:12 33.42036 -117.86295 8999 ft 199 kts 140°
2026-05-08 00:12 33.40968 -117.85216 8999 ft 199 kts 140°
2026-05-08 00:13 33.39900 -117.84140 8999 ft 199 kts 140°
2026-05-08 00:13 33.38842 -117.83073 8999 ft 199 kts 140°
2026-05-08 00:13 33.37781 -117.82004 8999 ft 199 kts 140°
2026-05-08 00:13 33.36720 -117.80936 8999 ft 199 kts 140°
2026-05-08 00:14 33.35658 -117.79866 9000 ft 199 kts 140°
2026-05-08 00:14 33.34597 -117.78799 9000 ft 199 kts 140°
2026-05-08 00:14 33.33538 -117.77732 9000 ft 199 kts 140°
2026-05-08 00:14 33.32481 -117.76669 9001 ft 199 kts 140°
2026-05-08 00:15 33.31419 -117.75601 9001 ft 199 kts 140°
2026-05-08 00:15 33.30365 -117.74542 9001 ft 199 kts 140°
2026-05-08 00:15 33.29297 -117.73460 9001 ft 199 kts 137°
2026-05-08 00:15 33.28352 -117.72252 9002 ft 199 kts 133°
2026-05-08 00:16 33.27421 -117.71030 9003 ft 199 kts 133°
2026-05-08 00:16 33.26487 -117.69803 9003 ft 199 kts 133°
2026-05-08 00:16 33.25550 -117.68572 9004 ft 199 kts 133°
2026-05-08 00:16 33.24622 -117.67352 9004 ft 199 kts 133°
2026-05-08 00:17 33.23698 -117.66138 9005 ft 199 kts 133°
2026-05-08 00:17 33.22757 -117.64901 9005 ft 199 kts 133°
2026-05-08 00:17 33.21828 -117.63682 9006 ft 199 kts 133°
2026-05-08 00:17 33.20895 -117.62457 9006 ft 199 kts 133°
2026-05-08 00:18 33.19967 -117.61238 9006 ft 199 kts 133°
2026-05-08 00:18 33.19040 -117.60023 9006 ft 199 kts 133°
2026-05-08 00:18 33.18101 -117.58791 9006 ft 199 kts 133°
2026-05-08 00:18 33.17176 -117.57579 9006 ft 199 kts 133°
2026-05-08 00:19 33.16232 -117.56342 9006 ft 199 kts 133°
2026-05-08 00:19 33.15311 -117.55135 9006 ft 199 kts 133°
2026-05-08 00:19 33.14377 -117.53912 9006 ft 199 kts 133°
2026-05-08 00:19 33.13438 -117.52682 9006 ft 199 kts 133°
2026-05-08 00:20 33.12514 -117.51472 9006 ft 199 kts 133°
2026-05-08 00:20 33.11575 -117.50243 9006 ft 199 kts 133°
2026-05-08 00:20 33.10652 -117.49036 9006 ft 199 kts 133°
2026-05-08 00:20 33.09711 -117.47805 9006 ft 199 kts 133°
2026-05-08 00:21 33.08769 -117.46574 9006 ft 199 kts 134°
2026-05-08 00:21 33.07843 -117.45364 9006 ft 199 kts 134°
2026-05-08 00:21 33.06905 -117.44138 9006 ft 199 kts 134°
2026-05-08 00:21 33.05982 -117.42934 8950 ft 195 kts 134°
2026-05-08 00:22 33.05056 -117.41724 8526 ft 199 kts 134°
2026-05-08 00:22 33.04124 -117.40507 8211 ft 200 kts 134°
2026-05-08 00:22 33.03184 -117.39283 7942 ft 200 kts 135°
2026-05-08 00:22 33.02246 -117.38058 7681 ft 200 kts 135°
2026-05-08 00:23 33.01305 -117.36832 7488 ft 200 kts 135°
2026-05-08 00:23 33.00367 -117.35611 7295 ft 200 kts 135°
2026-05-08 00:23 32.99414 -117.34369 7094 ft 201 kts 136°
2026-05-08 00:23 32.98469 -117.33138 6896 ft 202 kts 136°
2026-05-08 00:24 32.97524 -117.31908 6712 ft 203 kts 136°
2026-05-08 00:24 32.96572 -117.30670 6567 ft 204 kts 136°
2026-05-08 00:24 32.95604 -117.29411 6436 ft 205 kts 136°
2026-05-08 00:24 32.94643 -117.28162 6320 ft 206 kts 136°
2026-05-08 00:25 32.93663 -117.26887 6207 ft 207 kts 136°
2026-05-08 00:25 32.92697 -117.25632 6101 ft 207 kts 136°
2026-05-08 00:25 32.91718 -117.24361 6024 ft 206 kts 136°
2026-05-08 00:25 32.90760 -117.23116 6011 ft 203 kts 136°
2026-05-08 00:26 32.89990 -117.22115 6009 ft 201 kts 136°
2026-05-08 00:26 32.89022 -117.20860 6011 ft 199 kts 136°
2026-05-08 00:26 32.88096 -117.19657 6012 ft 198 kts 136°
2026-05-08 00:26 32.87153 -117.18435 6012 ft 198 kts 136°
2026-05-08 00:27 32.86223 -117.17230 6012 ft 197 kts 136°
2026-05-08 00:27 32.85302 -117.16035 6012 ft 196 kts 136°
2026-05-08 00:27 32.84389 -117.14852 6011 ft 194 kts 136°
2026-05-08 00:27 32.83477 -117.13671 6011 ft 192 kts 136°
2026-05-08 00:28 32.82575 -117.12503 6010 ft 190 kts 136°
2026-05-08 00:28 32.81686 -117.11353 6010 ft 189 kts 136°
2026-05-08 00:28 32.80786 -117.10188 6010 ft 187 kts 136°
2026-05-08 00:28 32.79915 -117.09062 6010 ft 186 kts 136°
2026-05-08 00:29 32.79030 -117.07917 6010 ft 185 kts 136°
2026-05-08 00:29 32.78166 -117.06799 6008 ft 185 kts 135°
2026-05-08 00:29 32.77631 -117.05379 5988 ft 189 kts 110°
2026-05-08 00:29 32.77261 -117.03870 5826 ft 192 kts 110°
2026-05-08 00:30 32.76890 -117.02344 5747 ft 192 kts 110°
2026-05-08 00:30 32.76521 -117.00824 5677 ft 192 kts 110°
2026-05-08 00:30 32.76150 -116.99300 5547 ft 191 kts 110°
2026-05-08 00:30 32.75731 -116.97806 5378 ft 189 kts 121°
2026-05-08 00:31 32.74926 -116.96584 5165 ft 186 kts 141°
2026-05-08 00:31 32.73844 -116.95780 4959 ft 183 kts 160°
2026-05-08 00:31 32.72614 -116.95470 4831 ft 177 kts 180°
2026-05-08 00:31 32.71432 -116.95655 4812 ft 167 kts 198°
2026-05-08 00:32 32.70406 -116.96249 4674 ft 166 kts 215°
2026-05-08 00:32 32.69570 -116.97221 4429 ft 170 kts 232°
2026-05-08 00:32 32.69028 -116.98490 4162 ft 175 kts 250°
2026-05-08 00:32 32.68865 -116.99934 3743 ft 182 kts 270°
2026-05-08 00:33 32.69106 -117.01409 3386 ft 184 kts 283°
2026-05-08 00:33 32.69438 -117.02824 3236 ft 172 kts 283°
2026-05-08 00:33 32.69756 -117.04144 3168 ft 160 kts 283°
2026-05-08 00:33 32.70066 -117.05426 2775 ft 170 kts 283°
2026-05-08 00:34 32.70412 -117.06848 2147 ft 181 kts 284°
2026-05-08 00:34 32.70739 -117.08186 1967 ft 155 kts 283°
2026-05-08 00:34 32.71013 -117.09311 1755 ft 131 kts 283°
2026-05-08 00:34 32.71250 -117.10285 1569 ft 114 kts 283°
2026-05-08 00:35 32.71457 -117.11140 1410 ft 107 kts 283°
2026-05-08 00:35 32.71681 -117.12066 1256 ft 130 kts 284°
2026-05-08 00:35 32.71946 -117.13152 1064 ft 140 kts 284°
2026-05-08 00:35 32.72215 -117.14262 837 ft 136 kts 284°
2026-05-08 00:36 32.72467 -117.15299 630 ft 125 kts 284°
2026-05-08 00:36 32.72702 -117.16267 443 ft 119 kts 284°
2026-05-08 00:36 32.72926 -117.17191 268 ft 115 kts 284°
2026-05-08 00:36 32.73134 -117.18049 95 ft 100 kts 284°
2026-05-08 00:37 32.73319 -117.18766 20 ft 75 kts 286°
2026-05-08 00:37 32.73428 -117.19270 20 ft 58 kts 287°
2026-05-08 00:37 32.73528 -117.19702 20 ft 34 kts 275°
2026-05-08 00:38 32.73561 -117.20245 20 ft 32 kts 286°
2026-05-08 00:38 32.73599 -117.20499 20 ft 31 kts 268°
2026-05-08 00:38 32.73526 -117.20675 20 ft 21 kts 204°
2026-05-08 00:38 32.73357 -117.20698 20 ft 26 kts 201°
2026-05-08 00:39 32.73343 -117.20796 20 ft 20 kts
2026-05-08 00:39 32.73399 -117.20747 20 ft 0 kts 92°